Location: La Silve
(44.2414°N, 5.8889°E)
Time: 18:26:10
(UTC+00:00)

Tiangong - Pass Details

Date: 25 June 2021
Orbit: 373 x 386 km, 41.5° (Epoch: 01 August)

Event Time Altitude Azimuth Distance (km) Brightness Sun altitude
Exits shadow 02:30:36 19° 243° (WSW) 974 2.5 -11.8°
Maximum altitude 02:32:33 48° 175° (S) 501 1.3 -11.6°
Drops below altitude 10° 02:35:36 10° 99° (E) 1,395 4.3 -11.3°
Sets 02:37:43 0° 94° (E) 2,251 5.5 -11.0°
